User: anonymous   Login
Location: Amos
(48.5670°N, 78.1170°W)
Time: 22:28:52
(UTC-05:00)
Language:

XW-2F - Orbit

View from above orbital plane
View from above orbital plane
View from above satellite
View from above satellite

Ground track
Ground track

The orbit data is extracted from the following two-line orbital elements,

1 40910U 15049M   20021.81790183  .00000602  00000-0  33172-4 0  9993
2 40910  97.4664  27.4252 0015379 148.7847 293.7775 15.17658811239948
Epoch (UTC): 21 January 2020 19:37:46
Eccentricity: 0.0015379
inclination: 97.4664°
perigee height: 502 km
apogee height: 523 km
right ascension of ascending node: 27.4252°
argument of perigee: 148.7847°
revolutions per day: 15.17658811
mean anomaly at epoch: 293.7775°
orbit number at epoch: 23994

The dashed part of the orbit path shows where the satellite is in the earth's shadow,  

DLR